Simultaneous Nadir Overpasses (SNOs) Predictions

Prediction of SNOs near US between AQUA and NPP Satellite Orbit:

Table of predicted SNOs near US for the next 10.0 days since TLE Epoch: 3/24/2017
Index Date (AQUA) Time (AQUA) AQUA Lat,Lon Date (NPP) Time (NPP) NPP Lat,Lon Distance(km) Time Diff (sec)
1 03/26/2017 18:17:28 50.00, -80.28 03/26/2017 18:10:07 49.74, -81.68 104.62 441
2 03/26/2017 19:56:21 49.99,-105.00 03/26/2017 19:51:35 49.63,-107.01 149.78 286
3 03/26/2017 21:31:26 36.39,-125.00 03/26/2017 21:29:08 35.91,-127.40 221.97 138
4 03/29/2017 09:25:04 20.05,-114.34 03/29/2017 09:16:44 18.54,-115.01 182.95 500
5 04/01/2017 06:31:39 43.75, -66.09 04/01/2017 06:30:49 44.06, -67.97 153.99 50
6 04/01/2017 08:08:48 49.94, -88.45 04/01/2017 08:10:29 50.40, -90.75 171.09 101
7 04/01/2017 09:47:42 49.89,-113.20 04/01/2017 09:51:58 50.45,-116.10 215.85 256
8 04/03/2017 19:06:58 49.96, -92.65 04/03/2017 19:00:43 49.65, -94.30 123.58 375




NCC Satellite Simultaneous Nadir Overpasses (SNOs) Prediction Service
